#timestamp,LO_Frequency,Hit,StdDev 
1514160015.0,286046998.0,N
1514160015.9,286046998.0,N
1514160035.7,286046995.3,N
1514160055.6,286046994.2,N
1514160075.4,286046988.7,Y
1514160095.2,286046988.9,P
1514160115.1,286046992.4,N
1514160116.0,286046992.4,N
1514160135.8,286046991.7,N
1514160155.6,286046994.0,N
1514160175.5,286046990.8,N
1514160195.3,286046990.7,Y
1514160215.1,286047000.5,P
1514160235.9,286047001.5,N
1514160255.7,286047000.4,N
1514160275.5,286046997.8,N
1514160295.4,286046996.8,N
1514160315.2,286046997.0,N
1514160335.0,286046996.6,N
1514160335.9,286046996.6,N
1514160355.8,286046996.8,N
1514160375.6,286046999.4,N
1514160395.4,286046993.8,N
1514160415.3,286046990.2,Y
1514160435.1,286046992.9,P
1514160436.0,286046992.9,P
1514160455.8,286046992.4,P
1514160475.7,286046994.1,N
1514160495.5,286046993.0,Y
1514160515.3,286046999.5,P
1514160535.2,286047001.9,N
1514160555.9,286047002.1,N
1514160575.7,286046998.6,N
1514160595.6,286046998.1,N
1514160615.4,286046999.6,N
1514160635.2,286046999.0,N
1514160655.0,286046993.8,N
1514160655.9,286046993.8,N
1514160675.8,286046997.2,N
1514160695.6,286046996.9,N
1514160715.4,286046997.4,N
1514160735.3,286046998.1,N
1514160755.1,286047000.4,N
1514160756.0,286047000.4,N
1514160775.8,286047004.0,N
1514160795.7,286047003.1,N
1514160815.5,286047005.8,N
1514160835.3,286047004.8,N
1514160855.2,286047003.2,N
1514160875.9,286047004.4,N
1514160895.7,286047003.3,N
1514160915.5,286047004.3,N
1514160935.4,286047003.2,N
1514160955.2,286047005.2,N
1514160975.0,286047007.0,N
1514160975.9,286047007.0,N
1514160995.8,286047007.3,N
1514161015.6,286047005.9,N
1514161035.4,286047010.6,N
1514161055.3,286047012.2,Y
1514161075.1,286047009.4,P
1514161095.8,286047017.1,P
1514161115.7,286047014.2,N
1514161135.5,286047018.5,Y
1514161155.3,286047007.2,P
1514161175.2,286047006.9,P
1514161195.9,286047006.4,P
1514161215.7,286047008.9,Y
1514161235.6,286047003.5,P
1514161255.4,286047007.2,P
1514161275.2,286047010.2,P
1514161295.1,286047015.6,Y
1514161296.0,286047015.6,P
1514161315.8,286047006.9,N
1514161335.6,286047010.7,N
1514161355.5,286047011.4,Y
1514161375.3,286047003.9,P
1514161395.1,286047007.3,N
1514161415.9,286047007.7,P
1514161435.7,286047011.0,Y
1514161455.5,286047006.4,P
1514161475.4,286047011.5,P
1514161495.2,286047011.0,P
1514161515.0,286047016.4,Y
1514161516.0,286047016.4,P
1514161535.8,286047007.2,N
1514161555.6,286047012.0,P
1514161575.5,286047011.2,Y
1514161595.3,286046999.6,P
1514161615.1,286046999.9,N
1514161635.8,286047003.2,N
1514161655.7,286047004.0,N
1514161675.5,286047002.1,N
1514161695.3,286047000.9,N
1514161715.2,286047000.1,N
1514161735.9,286047003.5,N
1514161755.7,286047005.4,N
1514161775.6,286047004.9,N
1514161795.4,286047002.6,N
1514161815.2,286047004.2,N
1514161835.1,286047003.1,N
1514161836.0,286047003.1,N
1514161855.8,286046999.5,N
1514161875.6,286046995.7,N
1514161895.4,286046997.2,N
1514161915.3,286046999.5,N
1514161935.1,286046993.4,N
1514161955.8,286046991.5,N
1514161975.7,286046985.1,Y
1514161995.5,286046978.0,P
1514162015.3,286046974.1,N
1514162035.2,286046976.5,N
1514162055.9,286046976.2,N
1514162075.7,286046975.4,N
1514162095.6,286046975.2,N
1514162115.4,286046976.4,N
1514162135.2,286046973.4,Y
1514162155.1,286046992.5,P
1514162156.0,286046992.5,N
1514162175.8,286046991.0,N
1514162195.6,286046988.6,N
1514162215.5,286046992.7,N
1514162235.3,286046994.1,N
1514162255.1,286046994.1,N
1514162275.9,286046993.9,N
1514162295.7,286046994.7,N
1514162315.5,286046994.3,N
1514162335.3,286046992.0,N
1514162355.2,286046994.7,N
1514162375.0,286046991.7,N
1514162375.9,286046991.7,N
1514162395.7,286046990.2,N
1514162415.6,286046989.6,N
1514162435.4,286046991.1,N
1514162455.2,286046989.8,N
1514162475.1,286046992.7,N
1514162476.0,286046992.7,N
1514162495.8,286046991.7,N
1514162515.6,286046992.6,N
1514162535.5,286046993.9,N
1514162555.3,286046990.8,N
1514162575.1,286046992.4,N
1514162595.9,286046992.0,N
1514162615.7,286046992.8,N
1514162635.5,286046988.5,Y
1514162655.4,286046998.7,P
1514162675.2,286047004.1,N
1514162695.0,286047004.2,N
1514162695.9,286047004.2,N
1514162715.8,286047000.6,N
1514162735.6,286047003.4,N
1514162755.4,286047003.0,N
1514162775.2,286046998.5,N
1514162795.1,286046999.4,N
1514162796.0,286046999.4,N
1514162815.8,286046996.2,N
1514162835.6,286046994.5,N
1514162855.5,286046996.1,N
1514162875.3,286046995.0,N
1514162895.1,286046995.7,N
1514162915.9,286046997.4,N
1514162935.7,286046998.9,N
1514162955.5,286047000.1,N
1514162975.4,286047001.2,N
1514162995.2,286046998.2,N
1514163015.0,286046996.9,N
1514163015.9,286046996.9,N
1514163035.8,286046994.0,N
1514163055.6,286046993.4,N
1514163075.4,286046992.6,N
1514163095.2,286046990.3,N
1514163115.1,286046993.2,N
1514163116.0,286046993.2,N
1514163135.8,286046990.6,N
1514163155.6,286046989.3,N
1514163175.5,286046985.9,Y
1514163195.3,286046990.9,P
1514163215.1,286046994.5,N
1514163235.9,286046990.9,P
1514163255.7,286046990.3,Y
1514163275.5,286046999.1,P
1514163295.4,286046997.3,N
1514163315.2,286046995.6,N
1514163335.0,286046995.8,N
1514163335.9,286046995.8,N
1514163355.8,286046994.2,Y
1514163375.6,286046998.0,P
1514163395.4,286046996.0,P
1514163415.3,286046993.7,P
1514163435.1,286046992.1,Y
1514163455.8,286046997.8,P
1514163475.7,286046995.4,P
1514163495.5,286046996.9,P
1514163515.3,286046999.0,N
1514163535.2,286046997.5,N
1514163555.9,286046997.8,N
1514163575.7,286046995.8,Y
1514163595.6,286047000.0,P
